Regional Weather Roundup
Issued by NWS

Home | Current Version | Previous Version | Graphics & Text | Print | Product List | Glossary On
Versions: 1 2 3 4 5 6 7 8 9 10 11 12 13 14 15 16 17 18 19 20 21 22 23 24 25 26 27 28 29 30 31 32 33 34 35 36 37 38 39 40 41 42 43 44 45 46 47 48 49 50
000
ASUS43 KIND 202059
RWRIN

WEATHER ROUNDUP FOR INDIANA
NATIONAL WEATHER SERVICE INDIANAPOLIS IN
400 PM EST TUE FEB 20 2018

NOTE: "FAIR" INDICATES FEW OR NO CLOUDS BELOW 12,000 FEET WITH NO
SIGNIFICANT WEATHER AND/OR OBSTRUCTIONS TO VISIBILITY.

* - STATION DOES NOT REPORT WEATHER SUCH AS PRECIPITATION OR FOG.

+ - STATION NOT QUALITY CONTROLLED BY THE NATIONAL WEATHER SERVICE.
    USE DATA WITH CAUTION...ESPECIALLY DEWPOINT AND RELATIVE
    HUMIDITY OBSERVATIONS.

INZ001>003-010>013-019-020-202200-
NORTHWEST INDIANA

CITY           SKY/WX    TMP DP  RH WIND       PRES   REMARKS
GARY /AIRPORT/ LGT RAIN  57  57 100 W17G35    29.91R
MONTICELLO +   CLOUDY    66  61  84 S17       29.93R

$$

LMZ046-743>745-202200-
SOUTHERN LAKE MICHIGAN

STATION/POSITION TIME  TEMP    WIND        PRES    WAVE
                       AIR SEA DIR/SP/G            HT
                 (UTC) (F)     (DEG/KT/KT) (MB)    (FT)
BURNS HARBOR     2040   63     200/ 22/ 29 1011.5R
MICHIGAN CITY    2030   64     180/ 24/ 27   N/A

$$

INZ004-005-014>016-021>024-202200-
NORTH CENTRAL INDIANA

CITY           SKY/WX    TMP DP  RH WIND       PRES   REMARKS
ELKHART        LGT RAIN  63  59  88 SW12G23   29.92S
GOSHEN         LGT RAIN  63  59  87 S24       29.93S
PERU/GRISSOM   PTSUNNY   69  64  84 SW22G28   29.95F
SOUTH BEND     LGT RAIN  64  60  87 S22G28    29.91S
WARSAW +       RAIN      63  59  88 S8        29.94F

$$

INZ006>009-017-018-025>027-202200-
NORTHEAST INDIANA

CITY           SKY/WX    TMP DP  RH WIND       PRES   REMARKS
AUBURN +       FAIR      64  59  82 S7        29.98S
FORT WAYNE     CLOUDY    70  59  68 SW22G32   29.98F
KENDALLVILLE + PTSUNNY   63  60  91 S13       29.96S

$$

INZ028-029-035-036-043>045-051>053-202200-
WEST CENTRAL INDIANA

CITY           SKY/WX    TMP DP  RH WIND       PRES   REMARKS
GREENCASTLE +  CLOUDY    72  54  53 SW10G20   30.00S
LAFAYETTE      LGT RAIN  68  59  73 SW14G28   29.94R
TERRE HAUTE    CLOUDY    74  60  61 SW18G25   29.98S

$$

INZ030>032-037>040-046>048-054>057-064-065-202200-
CENTRAL INDIANA

CITY           SKY/WX    TMP DP  RH WIND       PRES   REMARKS
ANDERSON       MOSUNNY   73  55  53 S16G25    30.02S
COLUMBUS       PTSUNNY   75  48  38 SW24G32   30.05S
GREENWOOD *+   FAIR      73 -26   2 SW16G24   30.03F
INDIANAPOLIS   PTSUNNY   75  56  51 S21G31    30.01R
-EAGLE CREEK   PTSUNNY   75  55  49 S20G28    30.00R
KOKOMO +       FAIR      70  59  68 S18G33    29.98S
MT COMFORT *+  FAIR      73  61  64 SW18G28   30.03R
SHELBYVILLE    FAIR      76  55  48 S21G30    30.03S

$$

INZ033-034-041-042-049-050-058-059-202200-
EAST CENTRAL INDIANA

CITY           SKY/WX    TMP DP  RH WIND       PRES   REMARKS
MUNCIE         FAIR      76  55  48 SW21G32   30.00F
RICHMOND +     FAIR      72  55  56 SW15G33   30.08S

$$

INZ060-061-067>069-081>083-085>088-202200-
SOUTHWEST INDIANA

CITY           SKY/WX    TMP DP  RH WIND       PRES   REMARKS
EVANSVILLE     PTSUNNY   76  56  49 S17       30.05S

$$

INZ062-063-066-070>080-084-089>092-202200-
SOUTH CENTRAL AND SOUTHEAST INDIANA

CITY           SKY/WX    TMP DP  RH WIND       PRES   REMARKS
BLOOMINGTON    FAIR      75  57  53 S18G31    30.03S
FRENCH LICK *+ FAIR      75  45  33 S16G23    30.07S
SEYMOUR +      FAIR      77  54  44 S20G29    30.06S

$$





USA.gov is the U.S. government's official web portal to all federal, state and local government web resources and services.